Regional Weather Roundup
Issued by NWS

Home | Current Version | Previous Version | Graphics & Text | Print | Product List | Glossary Off
Versions: 1 2 3 4 5 6 7 8 9 10 11 12 13 14 15 16 17 18 19 20 21 22 23 24 25 26 27 28 29 30 31 32 33 34 35 36 37 38 39 40 41 42 43 44 45 46 47 48 49 50

000
ASUS43 KMPX 292201
RWRMN
WEATHER ROUNDUP FOR MINNESOTA
NATIONAL WEATHER SERVICE TWIN CITIES/CHANHASSEN MN
500 PM CDT THU SEP 29 2016


NOTE: "FAIR" INDICATES FEW OR NO CLOUDS BELOW 12,000 FEET WITH NO
SIGNIFICANT WEATHER AND/OR OBSTRUCTIONS TO VISIBILITY. N/A MEANS
CURRENT SKY AND/OR WEATHER CONDITIONS ARE NOT AVAILABLE.

MNZ060>063-068>070-292300-
   Twin Cities Metro

CITY           SKY/WX    TMP DP  RH WIND       PRES   REMARKS
TWIN CITIES    SUNNY     68  50  52 NE6       30.40F
ST PAUL        SUNNY     68  51  54 NE7       30.41F
CRYSTAL        SUNNY     67  47  48 NE5       30.40F
BLAINE         MOSUNNY   68  52  56 NE5       30.41F
LAKEVILLE      SUNNY     66  50  55 N5        30.39F
EDEN PRAIRIE   SUNNY     68  50  52 NE6       30.39F
LAKEVILLE      SUNNY     66  50  55 N5        30.39F
SOUTH ST PAUL  SUNNY     67  49  51 NE3       30.40S
LAKE ELMO      FAIR      66  52  59 N5        30.41F
$$
MNZ001>005-007-008-013>017-022>024-027-028-292300-
   Northwest Minnesota

CITY           SKY/WX    TMP DP  RH WIND       PRES   REMARKS
BEMIDJI        CLOUDY    58  46  63 SE8       30.45F
HALLOCK        SUNNY     64  48  55 S9        30.40S
ROSEAU         SUNNY     64  48  55 SE5       30.43F HAZE
WARROAD        CLOUDY    63  52  67 E10       30.44F
THIEF RVR FALL SUNNY     64  45  49 SE10      30.42F
CROOKSTON      SUNNY     64  46  52 S8        30.40F
FOSSTON        MOSUNNY   64  46  52 E7        30.43F
DETROIT LAKES  SUNNY     61  45  55 S8        30.43F
MOORHEAD       SUNNY     64  45  48 S10       30.40F
PARK RAPIDS    CLOUDY    60  42  51 S7        30.44F
MAHNOMEN       FAIR      63  45  51 SE7       30.41F
$$
MNZ006-009>011-018-025>026-292300-
   North Central Minnesota

CITY           SKY/WX    TMP DP  RH WIND       PRES   REMARKS
BAUDETTE       CLOUDY    60  45  57 SE10      30.46F
FLAG ISLAND    SUNNY     59  46  63 SE6       30.44F
INTL FALLS     CLOUDY    57  48  72 E8        30.47F
WASKISH        CLOUDY    59  48  67 SE6       30.46F
BIG FORK       CLOUDY    59  48  67 SE3       30.47F
GRAND RAPIDS   CLOUDY    58  46  64 S3        30.48F
ORR            CLOUDY    55  45  67 CALM      30.47S
COOK           CLOUDY    55  45  67 CALM      30.49F
WALKER         CLOUDY    57  47  70 E3        30.45S
$$
MNZ012-019>021-037-292300-
   Northeast Minnesota

CITY           SKY/WX    TMP DP  RH WIND       PRES   REMARKS
DULUTH         MOSUNNY   58  48  69 E13       30.47S
ELY            CLOUDY    55  46  71 CALM      30.48F
HIBBING        CLOUDY    57  46  66 E3        30.47F
EVELETH        CLOUDY    58  46  64 CALM      30.49S
DULUTH HARBOR  SUNNY     57  54  88 NE14      30.48F
TWO HARBORS    SUNNY     61  50  67 E14       30.47S
SILVER BAY     SUNNY     57  50  77 E8        30.47F
GRAND MARAIS     N/A     58  52  80 E6        30.49F
G MARAIS ARPRT MOSUNNY   55  46  71 SE5       30.50F
$$
MNZ029>031-032-039>041-046>048-054>057-064-292300-
   West Central Minnesota

CITY           SKY/WX    TMP DP  RH WIND       PRES   REMARKS
FERGUS FALLS   SUNNY     63  46  55 SE7       30.42F
MORRIS         SUNNY     66  46  48 E10       30.40S
ALEXANDRIA     SUNNY     63  46  54 E7G17     30.43F
ELBOW LAKE     FAIR      62  47  58 SE7       30.42F
WADENA         CLOUDY    61  45  55 E6        30.43F
GLENWOOD       MOSUNNY   64  46  52 E7        30.43S
BENSON         SUNNY     66  45  45 SE8       30.40F
ORTONVILLE     SUNNY     64  46  52 CALM      30.39F
MADISON        SUNNY     68  50  52 E9        30.39F
WILLMAR        FAIR      64  48  55 E5        30.42F
$$
MNZ033>034-036-042>043-049>051-058-059-292300-
   Central Minnesota

CITY           SKY/WX    TMP DP  RH WIND       PRES   REMARKS
ST CLOUD       MOSUNNY   64  49  57 CALM      30.42F
SAUK CENTRE    MOCLDY    62  47  58 E8        30.43F
PAYNESVILLE    SUNNY     64  47  55 E3        30.42F
AITKIN         PTSUNNY   63  46  55 CALM      30.44S
PINE RIVER     CLOUDY    59  48  67 E6        30.47F
BRAINERD       CLOUDY    60  48  64 E6        30.45F
STAPLES        CLOUDY    59  45  58 E3        30.44F
LONG PRAIRIE   PTSUNNY   59  46  63 NE6       30.44S
LITTLE FALLS   MOSUNNY   61  45  55 CALM      30.43F
LITCHFIELD     SUNNY     64  52  63 E7        30.42S
BUFFALO        MOSUNNY   65  49  55 NE9       30.42F
MAPLE LAKE     MOSUNNY   65  52  61 E7        30.42F
HUTCHINSON     MOSUNNY   66  51  59 NE9       30.41F
$$
MNZ037-044-045-052-053-292300-
   East Central Minnesota

CITY           SKY/WX    TMP DP  RH WIND       PRES   REMARKS
PRINCETON        N/A     68  52  56 NE7       30.42F
MORA           MOSUNNY   64  50  59 NE5       30.44F
CAMBRIDGE      MOSUNNY   68  52  56 E6        30.40F
MOOSE LAKE     MOSUNNY   61  48  63 NE7       30.44S
HINCKLEY       FAIR      63  50  63 N3        30.43S
CLOQUET        SUNNY     57  45  62 E12       30.46F
MCGREGOR       MOSUNNY   61  46  59 NE3       30.46S
$$
MNZ071>073-080-081-089-090-097-098-292300-
   Southwest Minnesota

CITY           SKY/WX    TMP DP  RH WIND       PRES   REMARKS
MONTEVIDEO     SUNNY     70  48  46 SE10      30.41S
GRANITE FALLS  SUNNY     68  49  49 E7        30.41S
CANBY          SUNNY     67  48  50 SE8       30.40F
MARSHALL       SUNNY     65  49  56 E8        30.39F
REDWOOD FALLS  SUNNY     68  47  46 NE6       30.39F
OLIVIA         SUNNY     64  46  52 E5        30.39F
PIPESTONE      SUNNY     66  45  45 SE3       30.38S
WINDOM         SUNNY     66  46  48 CALM      30.39S
WORTHINGTON    SUNNY     66  48  52 E8        30.38F
JACKSON        SUNNY     68  45  42 E6        30.39S
TRACY          SUNNY     67  50  55 CALM      30.39F
$$
MNZ065>067-074>077-082>085-091>093-292300-
   South Central Minnesota

CITY           SKY/WX    TMP DP  RH WIND       PRES   REMARKS
MANKATO        SUNNY     66  48  52 CALM      30.40S
NEW ULM        SUNNY     66  46  48 E5        30.39F
ST JAMES       SUNNY     66  48  52 N5        30.40S
FAIRMONT       SUNNY     68  48  48 VRB6      30.38F
GLENCOE        SUNNY     66  53  64 NE3       30.40F
FARIBAULT      SUNNY     68  48  49 NE7       30.39F
OWATONNA       SUNNY     68  48  49 NW6       30.38F
WASECA         SUNNY     64  46  52 NE5       30.40F
ALBERT LEA     SUNNY     70  45  40 N5        30.37F
$$
MNZ078>079-086>088-094>096-292300-
   Southeast Minnesota

CITY           SKY/WX    TMP DP  RH WIND       PRES   REMARKS
ROCHESTER      SUNNY     69  51  52 N12       30.38S
RED WING       SUNNY     72  46  40 N7        30.37S
DODGE CENTER   SUNNY     70  46  43 NE6       30.38S
WINONA         SUNNY     70  50  49 N7        30.36S
AUSTIN         SUNNY     70  48  46 NE9       30.36S
PRESTON        SUNNY     66  50  55 NE9       30.36S
$$
ABBREVIATIONS USED IN REMARKS
   TC - TEMPERATURES IN CELSIUS
  WCI - WIND CHILL INDEX
   HX - HEAT INDEX
  VSB - VISIBILITY
$$




USA.gov is the U.S. government's official web portal to all federal, state and local government web resources and services.